Torna al catalogo

STARLINK-34301

AttivoComunicazioniVLEO
NORAD 64349·PAYLOAD·🇺🇸 United States

Lanciato Jun 13, 2025 da Vandenberg Space Force Base

Loading…

Prossimi Passaggi (prossime 24 ore)

TLE

AggiornatoSource: CelesTrak SupGP

Epoca: Sep 15, 2026, 03:45 UTC

1 64349C 25126F   26258.15673611 -.00030301  00000+0 -10546-2 0  2589
2 64349  70.0004 275.2024 0003627 270.7460 347.2652 15.29576803    11

Traccia STARLINK-34301 in tempo reale con AllMySat

Download on the App Store